INTELSAT 10 (IS-10) (26766 NORAD) Tracking and Keplerian Element Data

This shows tracking and keplerian element data for the satellite.

Feedback or suggestion? Click here.




ElementValue
Catalog26766
NameINTELSAT 10 (IS-10)
Epoch Orbit8693
Epoch Day35.12533715
Epoch Year2025
RAAN64.3403
Inclination7.88
Eccentricity0.0004065
Argument of Perigee245.7896
Mean Anonmoly295.6154
Mean Motion1.00272492
Decay Rate-7E-08
L11 26766U 01019A 25035.12533715 -.00000007 00000+0 00000+0 0 9996
L22 26766 7.8800 64.3403 0004065 245.7896 295.6154 1.00272492 86933



Live tracking and technical data element details for INTELSAT 10 (IS-10) (NORAD 26766). INTELSAT 10 (IS-10) can be tracked NOW for your location showing map with azimuth and elevation plus other details from your city location.







IsCatalogInMostPopularTable: catalog: 26766, numindb: 562
Update: records affected: 1



GetName: 26766 INTELSAT 10 (IS-10)

Hit Count: updated at: Sat, 24 May 2025 16:25:21 GMT